[[{"header":{"parameterUnit":"m.s-1","parameterCategory":1,"la1":30.2992,"la2":30.254,"lo1":-89.0895,"lo2":-89.0443,"dy":0.0025,"dx":0.0025,"nx":19,"ny":19,"refTime":"2026-03-23T21:00:00:Z","depth":0,"parameterNumber":2,"parameterNumberName":"U-component_of_WINDS"},"data":[0,0,0,-4.3011,-4.3016,-4.3246,-4.3246,-4.354,-4.3543,0,0,0,0,0,0,0,0,0,0,0,-4.294,-4.2942,-4.301,-4.3016,-4.3245,-4.3247,-4.354,-4.3543,0,0,0,0,0,0,0,0,0,0,0,-4.2939,-4.2942,-4.2944,-4.3017,-4.3245,-4.3247,-4.3539,-4.3366,0,0,0,0,0,0,0,0,0,0,-4.3144,-4.3075,-4.2941,-4.2944,-4.3018,-4.3245,-4.3247,-4.3358,-4.3377,-4.3436,0,-4.3485,0,-4.3518,-4.3562,-4.3563,0,0,0,-4.3019,-4.3059,-4.3124,-4.2944,-4.302,-4.3245,-4.3143,-4.3369,-4.339,-4.3461,-4.3489,-4.35,-4.3523,-4.3564,-4.3566,-4.389,-4.3891,0,0,-4.3006,-4.2981,-4.3109,-4.3137,-4.3099,-4.3135,-4.315,-4.3382,-4.3411,-4.349,-4.3507,-4.3528,-4.3566,-4.3568,-4.3889,-4.389,0,0,0,-4.2968,-4.2972,-4.303,-4.3125,-4.3166,-4.3142,-4.3159,-4.3401,-4.3422,-4.351,-4.3532,-4.3568,-4.3571,-4.3887,-4.3889,-4.3933,0,0,0,-4.296,-4.2949,-4.3025,-4.3011,-4.3162,-4.3286,-4.3172,-4.3406,-4.3433,-4.353,-4.3568,-4.3574,-4.3886,-4.3888,-4.3928,-4.3957,0,0,0,-4.2926,-4.2946,-4.2978,-4.301,-4.3107,-4.3283,-4.3318,-4.3413,-4.3446,-4.3564,-4.3575,-4.3885,-4.3888,-4.3924,-4.395,-4.4034,0,0,0,-4.2883,-4.3013,-4.2978,-4.3133,-4.3105,-4.3308,-4.3316,-4.3469,-4.3575,-4.3569,-4.3886,-4.3889,-4.3923,-4.3946,-4.4029,-4.4098,-4.4125,0,0,-4.3033,-4.303,-4.3124,-4.3099,-4.3301,-4.3275,-4.3485,-4.3607,-4.3642,-4.3806,-4.3815,-4.393,-4.395,-4.4033,-4.4287,-4.4308,0,0,0,-4.3163,-4.3229,-4.3288,-4.3387,-4.3483,-4.3568,-4.366,-4.3707,-4.3847,-4.3721,-4.3985,-4.3997,-4.4047,-4.4081,-4.4099,-4.4144,-4.3904,-4.3904,-4.3904,-4.3337,-4.3375,-4.3533,-4.3599,-4.3696,-4.3791,-4.3873,-4.3952,-4.3962,-4.4025,-4.4072,-4.4221,-4.426,-4.4274,-4.432,-4.4114,-4.4114,-4.4114,-4.4114,-4.356,-4.3659,-4.3672,-4.3828,-4.387,-4.4003,-4.4102,-4.4105,-4.4237,-4.4188,-4.4234,-4.4175,-4.4295,-4.4338,-4.4118,-4.4117,-4.4117,-4.4117,-4.4116,-4.3676,-4.373,-4.3784,-4.3933,-4.4044,-4.4109,-4.4235,-4.4269,-4.4302,-4.4348,-4.4402,-4.4402,-4.4404,-4.4372,-4.4372,-4.4373,-4.4373,-4.4374,-4.4374,-4.3774,-4.3833,-4.3934,-4.4049,-4.4118,-4.4214,-4.4314,-4.4385,-4.4471,-4.4486,-4.4487,-4.4491,-4.4301,-4.4251,-4.4382,-4.4381,-4.438,-4.4379,-4.4378,-4.3981,-4.394,-4.4095,-4.4164,-4.4304,-4.4413,-4.4456,-4.4597,-4.4661,-4.4722,-4.4719,-4.4573,-4.4572,-4.4559,-4.4517,-4.471,-4.471,-4.471,-4.471,-4.4077,-4.4081,-4.4248,-4.4357,-4.4469,-4.4524,-4.4701,-4.4783,-4.4861,-4.4903,-4.4881,-4.4831,-4.4815,-4.4824,-4.4804,-4.4766,-4.5018,-4.5019,-4.5019,-4.4206,-4.4223,-4.4365,-4.4439,-4.4552,-4.4649,-4.4817,-4.4944,-4.5025,-4.5032,-4.4937,-4.4924,-4.4843,-4.4815,-4.4815,-4.4784,-4.4715,0,0]},{"header":{"parameterUnit":"m.s-1","parameterCategory":1,"la1":30.2992,"la2":30.254,"lo1":-89.0895,"lo2":-89.0443,"dy":0.0025,"dx":0.0025,"nx":19,"ny":19,"refTime":"2026-03-23T21:00:00:Z","depth":0,"parameterNumber":3,"parameterNumberName":"V-component_of_WINDS"},"data":[0,0,0,3.4215,3.4217,3.4291,3.4291,3.4373,3.4374,0,0,0,0,0,0,0,0,0,0,0,3.4187,3.4187,3.4215,3.4217,3.4291,3.4292,3.4373,3.4374,0,0,0,0,0,0,0,0,0,0,0,3.4187,3.4187,3.4188,3.4217,3.4291,3.4292,3.4373,3.4321,0,0,0,0,0,0,0,0,0,0,3.4251,3.4219,3.4187,3.4188,3.4218,3.4291,3.4292,3.4319,3.4324,3.4334,0,3.4343,0,3.436,3.4378,3.4379,0,0,0,3.4221,3.4214,3.424,3.4188,3.4218,3.4291,3.4259,3.4322,3.4328,3.4341,3.4344,3.4347,3.4361,3.4379,3.4379,3.4427,3.4427,0,0,3.4217,3.4196,3.4236,3.4244,3.4234,3.4256,3.4261,3.4326,3.4326,3.4344,3.4349,3.4362,3.4379,3.438,3.4427,3.4427,0,0,0,3.4203,3.4193,3.4218,3.424,3.4255,3.4258,3.4264,3.4324,3.4334,3.435,3.4363,3.438,3.4381,3.4427,3.4427,3.4409,0,0,0,3.42,3.4184,3.4216,3.4204,3.4254,3.429,3.426,3.4329,3.4337,3.4363,3.438,3.4381,3.4427,3.4427,3.441,3.4403,0,0,0,3.4184,3.4183,3.4191,3.4202,3.4234,3.429,3.4304,3.4331,3.4345,3.4379,3.4381,3.4427,3.4427,3.441,3.4404,3.4411,0,0,0,3.416,3.4172,3.4191,3.4209,3.4233,3.4279,3.4304,3.4338,3.4365,3.438,3.4427,3.4427,3.441,3.4405,3.4411,3.4412,3.4411,0,0,3.4163,3.4172,3.4184,3.4203,3.4241,3.4269,3.4304,3.4347,3.4368,3.4406,3.4408,3.441,3.4404,3.4411,3.4412,3.441,0,0,0,3.4178,3.4187,3.4202,3.4228,3.4263,3.4293,3.4333,3.435,3.4384,3.4384,3.4414,3.4412,3.4417,3.4418,3.4417,3.4423,3.4427,3.4427,3.4427,3.415,3.418,3.4203,3.4242,3.4267,3.4311,3.4333,3.4363,3.4383,3.439,3.4401,3.4398,3.4399,3.4398,3.4404,3.4404,3.4404,3.4404,3.4404,3.4158,3.4175,3.4205,3.4238,3.4269,3.4297,3.434,3.4353,3.4383,3.4391,3.4397,3.4403,3.4396,3.4402,3.4403,3.4403,3.4403,3.4403,3.4403,3.4142,3.4156,3.4178,3.4221,3.425,3.4288,3.4317,3.4343,3.4368,3.4373,3.4388,3.4389,3.4392,3.4379,3.4379,3.4379,3.4379,3.4379,3.4379,3.4117,3.4143,3.4165,3.4206,3.4227,3.4259,3.4304,3.4326,3.4356,3.4373,3.4373,3.4392,3.4391,3.4389,3.4379,3.4379,3.4379,3.4379,3.4379,3.4113,3.4119,3.4152,3.4174,3.4225,3.4253,3.4288,3.4329,3.4351,3.4364,3.4384,3.4378,3.4387,3.4388,3.4388,3.4377,3.4377,3.4377,3.4377,3.41,3.4108,3.415,3.4183,3.4219,3.4255,3.4291,3.4327,3.4365,3.438,3.4386,3.4387,3.4387,3.4396,3.4397,3.4397,3.4389,3.4389,3.4389,3.4099,3.4113,3.4138,3.4179,3.4221,3.4257,3.4292,3.4328,3.4372,3.439,3.4392,3.4392,3.4395,3.4394,3.441,3.4411,3.441,0,0]}]]